Flag Weather past 2 weeks in Ettelbruck, Luxembourg

Now
43 °F

Low clouds.


Feels Like: 43 °F
Forecast: 38 / 51 °F
Wind: 2 mph from Southeast

Location: Luxembourg / Luxembourg

Current Time: Nov 21, 2014 at 9:52:20 PM

Latest Report: Nov 21, 2014 at 9:00 PM


Visibility: 4 mi

Pressure: 30.14 "Hg

Humidity: 90%

Dew point: 40 °F

Location of EttelbruckLocation

Historic Weather in Ettelbruck — Graph

°F

Ettelbruck temperature yesterday

Maximum temperature yesterday: 45 °F (at 3:00 PM)
Minimum temperature yesterday: 37 °F (at 7:00 AM)
Average temperature yesterday: 40 °F

Past Weeks' High & Low Weather Summary

 TemperatureHumidityPressure
High52 °F (Nov 14, 1:00 PM)100% (Nov 7, 3:00 AM)30.32 "Hg (Nov 7, 3:00 AM)
Low34 °F (Nov 7, 8:00 AM)76% (Nov 19, 3:00 PM)29.55 "Hg (Nov 16, 3:00 PM)
Average44 °F95%29.84 "Hg
* Reported Nov 6 8:00 PM — Nov 21 8:00 PM, Ettelbruck, Weather by CustomWeather, © 2014

Note: Actual official high and low records may vary slightly from our data, if they occured in-between our weather recording intervals... More about our weather records

Advertising

Ettelbruck weather history for previous 24 hours

 ConditionsComfort  
Time TempWeatherWind HumidityBarometerVisibility
8:00 PM
Nov 21
43 °FLow clouds.2 mph90%30.13 "Hg5 mi
7:00 PM43 °FLow clouds.2 mph90%30.13 "Hg5 mi
6:00 PM43 °FQuite cool.2 mph89%30.13 "Hg6 mi
5:00 PM43 °FOvercast.2 mph89%30.13 "Hg6 mi
4:00 PM43 °FOvercast.2 mph88%30.14 "Hg6 mi
3:00 PM43 °FOvercast.1 mph88%30.14 "Hg6 mi
2:00 PM42 °FOvercast.2 mph89%30.15 "Hg6 mi
1:00 PM42 °FOvercast.2 mph89%30.17 "Hg4 mi
12:00 PM40 °FOvercast.3 mph93%30.19 "Hg3 mi
11:00 AM38 °FFog.3 mph95%30.20 "Hg2 mi
10:00 AM37 °FFog.5 mph96%30.19 "Hg2 mi
9:00 AM36 °FFog.3 mph98%30.20 "Hg2 mi
8:00 AM36 °FFog.3 mph98%30.20 "Hg2 mi
7:00 AM35 °FPassing clouds.3 mph98%30.20 "Hg4 mi
6:00 AM35 °FChilly.3 mph97%30.21 "Hg2 mi
5:00 AM37 °FFog.5 mph96%30.22 "Hg2 mi
3:00 AM37 °FChilly.3 mph98%30.23 "Hg2 mi
2:00 AM37 °FChilly.5 mph98%30.24 "Hg2 mi
1:00 AM38 °FPassing clouds.5 mph98%30.25 "Hg3 mi
12:00 AM39 °FPassing clouds.5 mph98%30.27 "Hg3 mi
11:00 PM
Nov 20
39 °FOvercast.6 mph98%30.27 "Hg4 mi
10:00 PM40 °FOvercast.5 mph98%30.27 "Hg5 mi
9:00 PM40 °FOvercast.5 mph98%30.27 "Hg6 mi
Weather by CustomWeather, © 2014

See weather overviewHow to use our weather pages